Time,TemperatureF,DewpointF,PressureIn,WindDirection,WindDirectionDegrees,WindSpeedMPH,WindSpeedGustMPH,Humidity,HourlyPrecipIn,Conditions,Clouds,dailyrainin,SoftwareType,DateUTC
2013-05-24 00:01:00,73.6,67.8,29.96,North,351,5.0,-999.0,82,0.00,,,0.00,PyWeather,2013-05-24 10:01:00,
2013-05-24 00:06:00,73.7,67.9,29.96,North,351,7.0,-999.0,82,0.00,,,0.00,PyWeather,2013-05-24 10:06:00,
2013-05-24 00:11:00,73.8,68.0,29.96,North,355,8.0,-999.0,82,0.00,,,0.00,PyWeather,2013-05-24 10:11:00,
2013-05-24 00:16:00,73.8,68.0,29.96,North,355,8.0,-999.0,82,0.00,,,0.00,PyWeather,2013-05-24 10:16:00,
2013-05-24 00:21:00,73.9,68.1,29.96,North,355,7.0,-999.0,82,0.00,,,0.00,PyWeather,2013-05-24 10:21:00,
2013-05-24 00:26:00,74.0,68.2,29.96,North,355,7.0,-999.0,82,0.00,,,0.00,PyWeather,2013-05-24 10:26:00,
2013-05-24 00:31:00,74.0,68.2,29.95,North,360,6.0,-999.0,82,0.00,,,0.00,PyWeather,2013-05-24 10:31:00,
2013-05-24 00:36:00,74.1,68.3,29.95,NNW,348,5.0,-999.0,82,0.00,,,0.00,PyWeather,2013-05-24 10:36:00,
2013-05-24 00:41:00,74.2,68.1,29.95,North,355,6.0,-999.0,81,0.00,,,0.00,PyWeather,2013-05-24 10:41:00,
2013-05-24 00:46:00,74.1,68.0,29.95,North,355,8.0,-999.0,81,0.00,,,0.00,PyWeather,2013-05-24 10:46:00,
2013-05-24 00:51:00,74.2,68.1,29.95,NNE,16,7.0,-999.0,81,0.00,,,0.00,PyWeather,2013-05-24 10:51:00,
2013-05-24 00:56:00,74.0,67.9,29.95,North,11,5.0,-999.0,81,0.00,,,0.00,PyWeather,2013-05-24 10:56:00,
2013-05-24 01:01:00,73.7,67.6,29.95,North,360,5.0,-999.0,81,0.00,,,0.00,PyWeather,2013-05-24 11:01:00,
2013-05-24 01:06:00,73.4,67.6,29.94,North,360,6.0,-999.0,82,0.00,,,0.00,PyWeather,2013-05-24 11:06:00,
2013-05-24 01:11:00,73.2,67.4,29.94,North,355,7.0,-999.0,82,0.00,,,0.00,PyWeather,2013-05-24 11:11:00,
2013-05-24 01:16:00,73.1,67.3,29.94,North,355,7.0,-999.0,82,0.00,,,0.00,PyWeather,2013-05-24 11:16:00,
2013-05-24 01:21:00,73.0,67.2,29.94,North,360,8.0,-999.0,82,0.00,,,0.00,PyWeather,2013-05-24 11:21:00,
2013-05-24 01:26:00,73.0,67.2,29.94,North,360,7.0,-999.0,82,0.00,,,0.00,PyWeather,2013-05-24 11:26:00,
2013-05-24 01:31:00,73.0,67.2,29.94,North,360,7.0,-999.0,82,0.00,,,0.00,PyWeather,2013-05-24 11:31:00,
2013-05-24 01:36:00,73.1,67.0,29.94,North,9,6.0,-999.0,81,0.00,,,0.00,PyWeather,2013-05-24 11:36:00,
2013-05-24 01:41:00,73.1,67.0,29.94,North,9,6.0,-999.0,81,0.00,,,0.00,PyWeather,2013-05-24 11:41:00,
2013-05-24 01:46:00,73.0,66.9,29.94,North,5,5.0,-999.0,81,0.00,,,0.00,PyWeather,2013-05-24 11:46:00,
2013-05-24 01:51:00,73.0,67.2,29.94,North,360,5.0,-999.0,82,0.00,,,0.00,PyWeather,2013-05-24 11:51:00,
2013-05-24 01:56:00,73.0,67.2,29.94,North,360,5.0,-999.0,82,0.00,,,0.00,PyWeather,2013-05-24 11:56:00,
2013-05-24 02:01:00,73.0,67.2,29.93,North,11,6.0,-999.0,82,0.00,,,0.00,PyWeather,2013-05-24 12:01:00,
2013-05-24 02:06:00,72.9,67.1,29.94,North,11,6.0,-999.0,82,0.00,,,0.00,PyWeather,2013-05-24 12:06:00,
2013-05-24 02:11:00,72.7,67.0,29.93,North,11,5.0,-999.0,82,0.00,,,0.00,PyWeather,2013-05-24 12:11:00,
2013-05-24 02:16:00,72.5,66.8,29.93,North,9,5.0,-999.0,82,0.00,,,0.00,PyWeather,2013-05-24 12:16:00,
2013-05-24 02:21:00,72.0,66.6,29.93,North,9,5.0,-999.0,83,0.00,,,0.00,PyWeather,2013-05-24 12:21:00,
2013-05-24 02:26:00,71.3,65.9,29.93,North,5,6.0,-999.0,83,0.00,,,0.00,PyWeather,2013-05-24 12:26:00,
2013-05-24 02:31:00,71.2,66.5,29.93,North,5,6.0,-999.0,85,0.00,,,0.00,PyWeather,2013-05-24 12:31:00,
2013-05-24 02:36:00,71.4,66.7,29.93,North,9,5.0,-999.0,85,0.00,,,0.00,PyWeather,2013-05-24 12:36:00,
2013-05-24 02:41:00,71.7,67.3,29.93,North,5,4.0,-999.0,86,0.00,,,0.00,PyWeather,2013-05-24 12:41:00,
2013-05-24 02:46:00,71.9,67.5,29.93,North,9,4.0,-999.0,86,0.00,,,0.00,PyWeather,2013-05-24 12:46:00,
2013-05-24 02:51:00,71.9,67.2,29.93,North,9,4.0,-999.0,85,0.00,,,0.00,PyWeather,2013-05-24 12:51:00,
2013-05-24 02:56:00,71.9,67.2,29.93,North,11,3.0,-999.0,85,0.00,,,0.00,PyWeather,2013-05-24 12:56:00,
2013-05-24 03:01:00,71.8,67.1,29.92,NNE,12,3.0,-999.0,85,0.00,,,0.00,PyWeather,2013-05-24 13:01:00,
2013-05-24 03:06:00,71.7,67.0,29.93,NNE,32,4.0,-999.0,85,0.00,,,0.00,PyWeather,2013-05-24 13:06:00,
2013-05-24 03:11:00,71.6,66.9,29.93,NNE,14,4.0,-999.0,85,0.00,,,0.00,PyWeather,2013-05-24 13:11:00,
2013-05-24 03:16:00,71.5,66.8,29.93,NNE,17,2.0,-999.0,85,0.00,,,0.00,PyWeather,2013-05-24 13:16:00,
2013-05-24 03:21:00,71.3,66.6,29.93,NNE,24,2.0,-999.0,85,0.00,,,0.00,PyWeather,2013-05-24 13:21:00,
2013-05-24 03:26:00,71.1,66.7,29.93,NNE,24,2.0,-999.0,86,0.00,,,0.00,PyWeather,2013-05-24 13:26:00,
2013-05-24 03:31:00,70.8,66.4,29.93,NNE,24,0.0,-999.0,86,0.00,,,0.00,PyWeather,2013-05-24 13:31:00,
2013-05-24 03:36:00,70.6,66.2,29.93,NNE,27,2.0,-999.0,86,0.00,,,0.00,PyWeather,2013-05-24 13:36:00,
2013-05-24 03:41:00,70.6,66.2,29.93,NNE,24,3.0,-999.0,86,0.00,,,0.00,PyWeather,2013-05-24 13:41:00,
2013-05-24 03:46:00,70.6,66.2,29.93,NE,37,3.0,-999.0,86,0.00,,,0.00,PyWeather,2013-05-24 13:46:00,
2013-05-24 03:51:00,70.4,66.0,29.93,NE,36,1.0,-999.0,86,0.00,,,0.00,PyWeather,2013-05-24 13:51:00,
2013-05-24 03:56:00,70.3,65.9,29.93,NE,36,2.0,-999.0,86,0.00,,,0.00,PyWeather,2013-05-24 13:56:00,
2013-05-24 04:02:00,70.3,65.9,29.93,North,11,3.0,-999.0,86,0.00,,,0.00,PyWeather,2013-05-24 14:02:00,
2013-05-24 04:07:00,70.3,65.9,29.93,NNE,26,3.0,-999.0,86,0.00,,,0.00,PyWeather,2013-05-24 14:07:00,
2013-05-24 04:12:00,70.6,66.2,29.93,NNE,31,3.0,-999.0,86,0.00,,,0.00,PyWeather,2013-05-24 14:12:00,
2013-05-24 04:17:00,70.9,66.8,29.93,NNE,25,3.0,-999.0,87,0.00,,,0.00,PyWeather,2013-05-24 14:17:00,
2013-05-24 04:22:00,71.5,67.4,29.93,NNE,20,3.0,-999.0,87,0.00,,,0.00,PyWeather,2013-05-24 14:22:00,
2013-05-24 04:27:00,72.1,67.7,29.93,NNE,14,4.0,-999.0,86,0.00,,,0.00,PyWeather,2013-05-24 14:27:00,
2013-05-24 04:32:00,72.1,67.4,29.93,North,9,4.0,-999.0,85,0.00,,,0.00,PyWeather,2013-05-24 14:32:00,
2013-05-24 04:37:00,71.9,67.2,29.93,NE,36,3.0,-999.0,85,0.00,,,0.00,PyWeather,2013-05-24 14:37:00,
2013-05-24 04:42:00,71.4,66.4,29.93,NE,38,1.0,-999.0,84,0.00,,,0.00,PyWeather,2013-05-24 14:42:00,
2013-05-24 04:47:00,71.2,66.5,29.93,NE,42,1.0,-999.0,85,0.00,,,0.00,PyWeather,2013-05-24 14:47:00,
2013-05-24 04:52:00,70.5,65.8,29.93,NNE,28,2.0,-999.0,85,0.00,,,0.00,PyWeather,2013-05-24 14:52:00,
2013-05-24 04:57:00,69.9,65.5,29.94,NNE,24,3.0,-999.0,86,0.00,,,0.00,PyWeather,2013-05-24 14:57:00,
2013-05-24 05:02:00,69.7,65.3,29.94,NNE,31,3.0,-999.0,86,0.00,,,0.00,PyWeather,2013-05-24 15:02:00,
2013-05-24 05:07:00,69.7,65.7,29.94,NNE,31,1.0,-999.0,87,0.00,,,0.00,PyWeather,2013-05-24 15:07:00,
2013-05-24 05:12:00,69.6,65.6,29.94,NNE,30,0.0,-999.0,87,0.00,,,0.00,PyWeather,2013-05-24 15:12:00,
2013-05-24 05:17:00,69.2,64.8,29.94,NNE,31,0.0,-999.0,86,0.00,,,0.00,PyWeather,2013-05-24 15:17:00,
2013-05-24 05:22:00,69.1,65.1,29.94,NNE,31,0.0,-999.0,87,0.00,,,0.00,PyWeather,2013-05-24 15:22:00,
2013-05-24 05:27:00,69.2,65.2,29.94,NNE,31,0.0,-999.0,87,0.00,,,0.00,PyWeather,2013-05-24 15:27:00,
2013-05-24 05:32:00,69.5,65.8,29.94,NNE,31,0.0,-999.0,88,0.00,,,0.00,PyWeather,2013-05-24 15:32:00,
2013-05-24 05:37:00,69.9,66.2,29.93,NNE,30,0.0,-999.0,88,0.00,,,0.00,PyWeather,2013-05-24 15:37:00,
2013-05-24 05:42:00,70.2,66.5,29.94,NNE,30,0.0,-999.0,88,0.00,,,0.00,PyWeather,2013-05-24 15:42:00,
2013-05-24 05:47:00,70.3,66.6,29.94,NNE,31,0.0,-999.0,88,0.00,,,0.00,PyWeather,2013-05-24 15:47:00,
2013-05-24 05:52:00,70.4,66.7,29.94,NNE,17,3.0,-999.0,88,0.00,,,0.00,PyWeather,2013-05-24 15:52:00,
2013-05-24 05:57:00,70.1,66.1,29.94,North,5,5.0,-999.0,87,0.00,,,0.00,PyWeather,2013-05-24 15:57:00,
2013-05-24 06:03:00,69.9,66.2,29.95,NNE,30,6.0,-999.0,88,0.00,,,0.00,PyWeather,2013-05-24 16:03:00,
2013-05-24 06:08:00,69.9,66.2,29.95,NE,39,5.0,-999.0,88,0.00,,,0.00,PyWeather,2013-05-24 16:08:00,
2013-05-24 06:13:00,70.1,66.1,29.95,NE,38,4.0,-999.0,87,0.00,,,0.00,PyWeather,2013-05-24 16:13:00,
2013-05-24 06:18:00,70.1,66.1,29.95,NNE,27,2.0,-999.0,87,0.00,,,0.00,PyWeather,2013-05-24 16:18:00,
2013-05-24 06:23:00,70.3,66.6,29.95,NNE,28,1.0,-999.0,88,0.00,,,0.00,PyWeather,2013-05-24 16:23:00,
2013-05-24 06:28:00,70.4,66.4,29.95,NNE,28,1.0,-999.0,87,0.00,,,0.00,PyWeather,2013-05-24 16:28:00,
2013-05-24 06:33:00,69.9,65.9,29.95,NE,36,0.0,-999.0,87,0.00,,,0.00,PyWeather,2013-05-24 16:33:00,
2013-05-24 06:38:00,70.0,66.0,29.95,East,93,1.0,-999.0,87,0.00,,,0.00,PyWeather,2013-05-24 16:38:00,
2013-05-24 06:43:00,70.3,66.6,29.95,NE,46,3.0,-999.0,88,0.00,,,0.00,PyWeather,2013-05-24 16:43:00,
2013-05-24 06:48:00,70.4,66.4,29.95,NE,46,2.0,-999.0,87,0.00,,,0.00,PyWeather,2013-05-24 16:48:00,
2013-05-24 06:53:00,70.4,66.4,29.95,NE,45,0.0,-999.0,87,0.00,,,0.00,PyWeather,2013-05-24 16:53:00,
2013-05-24 06:58:00,70.7,66.6,29.96,NE,46,0.0,-999.0,87,0.00,,,0.00,PyWeather,2013-05-24 16:58:00,
2013-05-24 07:03:00,70.8,66.7,29.96,NE,43,1.0,-999.0,87,0.00,,,0.00,PyWeather,2013-05-24 17:03:00,
2013-05-24 07:08:00,71.0,66.9,29.96,NNE,30,3.0,-999.0,87,0.00,,,0.00,PyWeather,2013-05-24 17:08:00,
2013-05-24 07:13:00,71.2,66.8,29.96,NNE,30,4.0,-999.0,86,0.00,,,0.00,PyWeather,2013-05-24 17:13:00,
2013-05-24 07:18:00,71.7,67.6,29.96,NE,42,5.0,-999.0,87,0.00,,,0.00,PyWeather,2013-05-24 17:18:00,
2013-05-24 07:23:00,72.7,68.3,29.96,NNE,19,4.0,-999.0,86,0.00,,,0.00,PyWeather,2013-05-24 17:23:00,
2013-05-24 07:29:00,73.9,68.8,29.96,NE,45,4.0,-999.0,84,0.00,,,0.00,PyWeather,2013-05-24 17:29:00,
2013-05-24 07:41:00,75.5,68.6,29.97,NE,51,3.0,-999.0,79,0.00,,,0.00,PyWeather,2013-05-24 17:41:00,
2013-05-24 07:46:00,76.1,68.9,29.97,NE,42,2.0,-999.0,78,0.00,,,0.00,PyWeather,2013-05-24 17:46:00,
2013-05-24 08:00:00,78.4,70.0,29.96,North,5,5.0,-999.0,75,0.00,,,0.00,PyWeather,2013-05-24 18:00:00,
2013-05-24 08:05:00,79.2,69.6,29.96,North,5,8.0,-999.0,72,0.00,,,0.00,PyWeather,2013-05-24 18:05:00,
2013-05-24 08:12:00,79.4,69.0,29.96,NE,49,7.0,-999.0,70,0.00,,,0.00,PyWeather,2013-05-24 18:12:00,
2013-05-24 08:17:00,79.5,68.2,29.96,NE,54,5.0,-999.0,68,0.00,,,0.00,PyWeather,2013-05-24 18:17:00,
2013-05-24 08:22:00,79.5,68.7,29.96,NE,44,6.0,-999.0,69,0.00,,,0.00,PyWeather,2013-05-24 18:22:00,
2013-05-24 08:27:00,80.0,69.1,29.96,NE,53,5.0,-999.0,69,0.00,,,0.00,PyWeather,2013-05-24 18:27:00,
2013-05-24 08:32:00,80.6,68.9,29.96,NNE,29,5.0,12.0,67,0.00,,,0.00,PyWeather,2013-05-24 18:32:00,
2013-05-24 08:37:00,81.1,68.5,29.96,North,5,7.0,12.0,65,0.00,,,0.00,PyWeather,2013-05-24 18:37:00,
2013-05-24 08:42:00,80.9,68.3,29.95,NNE,14,11.0,15.0,65,0.00,,,0.00,PyWeather,2013-05-24 18:42:00,
2013-05-24 08:47:00,81.2,69.0,29.95,ENE,59,14.0,15.0,66,0.00,,,0.00,PyWeather,2013-05-24 18:47:00,
2013-05-24 08:52:00,81.6,68.9,29.96,ENE,61,10.0,24.0,65,0.00,,,0.00,PyWeather,2013-05-24 18:52:00,
2013-05-24 08:57:00,82.1,68.5,29.95,NE,56,6.0,24.0,63,0.00,,,0.00,PyWeather,2013-05-24 18:57:00,
2013-05-24 18:21:00,77.3,69.3,29.92,North,360,18.0,-999.0,76,0.00,,,0.00,PyWeather,2013-05-25 04:21:00,
2013-05-24 18:22:00,77.3,69.3,29.92,North,360,18.0,-999.0,76,0.00,,,0.00,PyWeather,2013-05-25 04:22:00,
2013-05-24 18:23:00,77.2,69.2,29.92,NNE,22,18.0,-999.0,76,0.00,,,0.00,PyWeather,2013-05-25 04:23:00,
2013-05-24 18:28:00,76.9,68.9,29.93,NNE,13,17.0,-999.0,76,0.00,,,0.00,PyWeather,2013-05-25 04:28:00,
2013-05-24 18:33:00,76.8,69.2,29.93,NNE,26,15.0,-999.0,77,0.00,,,0.00,PyWeather,2013-05-25 04:33:00,
2013-05-24 18:38:00,76.6,69.0,29.93,North,360,14.0,23.0,77,0.00,,,0.00,PyWeather,2013-05-25 04:38:00,
2013-05-24 18:43:00,76.6,69.0,29.93,NE,36,14.0,23.0,77,0.00,,,0.00,PyWeather,2013-05-25 04:43:00,
2013-05-24 18:49:00,76.4,68.8,29.93,NNE,17,14.0,-999.0,77,0.00,,,0.00,PyWeather,2013-05-25 04:49:00,
2013-05-24 18:54:00,76.3,68.7,29.94,North,5,14.0,-999.0,77,0.00,,,0.00,PyWeather,2013-05-25 04:54:00,
2013-05-24 19:00:00,76.2,68.6,29.94,NE,34,13.0,21.0,77,0.00,,,0.00,PyWeather,2013-05-25 05:00:00,
2013-05-24 19:05:00,76.1,68.1,29.94,NE,39,13.0,21.0,76,0.00,,,0.00,PyWeather,2013-05-25 05:05:00,
2013-05-24 19:10:00,76.0,68.0,29.94,NNE,12,14.0,21.0,76,0.00,,,0.00,PyWeather,2013-05-25 05:10:00,
2013-05-24 19:15:00,75.9,67.9,29.94,NNE,30,14.0,21.0,76,0.00,,,0.00,PyWeather,2013-05-25 05:15:00,
2013-05-24 19:20:00,75.9,67.9,29.95,NNE,29,13.0,21.0,76,0.00,,,0.00,PyWeather,2013-05-25 05:20:00,
2013-05-24 19:25:00,75.8,67.8,29.94,North,5,13.0,21.0,76,0.00,,,0.00,PyWeather,2013-05-25 05:25:00,
2013-05-24 19:30:00,75.6,68.0,29.94,NNE,17,13.0,20.0,77,0.00,,,0.00,PyWeather,2013-05-25 05:30:00,
2013-05-24 19:35:00,75.4,67.8,29.94,NNE,12,13.0,20.0,77,0.00,,,0.00,PyWeather,2013-05-25 05:35:00,
2013-05-24 19:40:00,75.3,67.7,29.95,NNE,28,12.0,20.0,77,0.00,,,0.00,PyWeather,2013-05-25 05:40:00,
2013-05-24 19:45:00,75.1,67.9,29.95,NNE,25,11.0,20.0,78,0.00,,,0.00,PyWeather,2013-05-25 05:45:00,
2013-05-24 19:50:00,74.9,67.7,29.95,NNE,28,11.0,18.0,78,0.00,,,0.00,PyWeather,2013-05-25 05:50:00,
2013-05-24 19:55:00,74.7,67.5,29.95,NNE,24,12.0,18.0,78,0.00,,,0.00,PyWeather,2013-05-25 05:55:00,
2013-05-24 20:00:00,74.6,67.0,29.95,NNE,27,12.0,-999.0,77,0.00,,,0.00,PyWeather,2013-05-25 06:00:00,
2013-05-24 20:05:00,74.6,66.7,29.95,NNE,12,12.0,-999.0,76,0.00,,,0.00,PyWeather,2013-05-25 06:05:00,
2013-05-24 20:10:00,74.6,66.7,29.95,NNE,27,13.0,20.0,76,0.00,,,0.00,PyWeather,2013-05-25 06:10:00,
2013-05-24 20:15:00,74.4,66.5,29.95,NNE,21,12.0,20.0,76,0.00,,,0.00,PyWeather,2013-05-25 06:15:00,
2013-05-24 20:20:00,74.3,66.8,29.96,NNE,29,12.0,21.0,77,0.00,,,0.00,PyWeather,2013-05-25 06:20:00,
2013-05-24 20:25:00,74.2,66.7,29.96,NNE,19,12.0,21.0,77,0.00,,,0.00,PyWeather,2013-05-25 06:25:00,
2013-05-24 20:30:00,74.1,66.6,29.96,NNE,21,12.0,20.0,77,0.00,,,0.00,PyWeather,2013-05-25 06:30:00,
2013-05-24 20:35:00,74.0,66.8,29.95,NNE,17,13.0,20.0,78,0.00,,,0.00,PyWeather,2013-05-25 06:35:00,
2013-05-24 20:40:00,73.9,66.7,29.96,North,10,12.0,-999.0,78,0.00,,,0.00,PyWeather,2013-05-25 06:40:00,
2013-05-24 20:45:00,74.0,66.8,29.96,NNE,25,12.0,-999.0,78,0.00,,,0.00,PyWeather,2013-05-25 06:45:00,
2013-05-24 20:50:00,73.9,66.7,29.96,NNE,17,12.0,22.0,78,0.00,,,0.00,PyWeather,2013-05-25 06:50:00,
2013-05-24 20:55:00,73.9,66.7,29.96,North,360,12.0,22.0,78,0.00,,,0.00,PyWeather,2013-05-25 06:55:00,
2013-05-24 21:00:00,73.8,66.6,29.96,NNE,25,12.0,20.0,78,0.00,,,0.00,PyWeather,2013-05-25 07:00:00,
2013-05-24 21:05:00,73.7,66.9,29.96,NE,34,13.0,20.0,79,0.00,,,0.00,PyWeather,2013-05-25 07:05:00,
2013-05-24 21:10:00,73.7,66.9,29.96,NNE,20,13.0,20.0,79,0.00,,,0.00,PyWeather,2013-05-25 07:10:00,
2013-05-24 21:15:00,73.6,66.8,29.96,NE,35,12.0,20.0,79,0.00,,,0.00,PyWeather,2013-05-25 07:15:00,
2013-05-24 21:20:00,73.7,66.9,29.96,NNE,22,13.0,21.0,79,0.00,,,0.00,PyWeather,2013-05-25 07:20:00,
2013-05-24 21:25:00,73.7,66.9,29.96,NNE,23,12.0,21.0,79,0.00,,,0.00,PyWeather,2013-05-25 07:25:00,
2013-05-24 21:30:00,73.6,66.8,29.96,NNE,19,12.0,-999.0,79,0.00,,,0.00,PyWeather,2013-05-25 07:30:00,
2013-05-24 21:35:00,73.5,66.7,29.97,NNE,21,12.0,-999.0,79,0.00,,,0.00,PyWeather,2013-05-25 07:35:00,
2013-05-24 21:40:00,73.4,66.9,29.97,NNE,22,13.0,-999.0,80,0.00,,,0.00,PyWeather,2013-05-25 07:40:00,
2013-05-24 21:45:00,73.4,66.9,29.97,NNE,27,13.0,-999.0,80,0.00,,,0.00,PyWeather,2013-05-25 07:45:00,
2013-05-24 21:50:00,73.4,66.9,29.97,NNE,18,12.0,-999.0,80,0.00,,,0.00,PyWeather,2013-05-25 07:50:00,
2013-05-24 21:55:00,73.5,67.0,29.97,North,10,12.0,-999.0,80,0.00,,,0.00,PyWeather,2013-05-25 07:55:00,
2013-05-24 22:00:00,73.5,67.0,29.97,NNE,12,11.0,20.0,80,0.00,,,0.00,PyWeather,2013-05-25 08:00:00,
2013-05-24 22:05:00,73.5,67.0,29.97,North,5,12.0,20.0,80,0.00,,,0.00,PyWeather,2013-05-25 08:05:00,
2013-05-24 22:10:00,73.5,67.0,29.97,NNE,19,14.0,20.0,80,0.00,,,0.00,PyWeather,2013-05-25 08:10:00,
2013-05-24 22:15:00,73.7,67.2,29.97,NNE,22,15.0,20.0,80,0.00,,,0.00,PyWeather,2013-05-25 08:15:00,
2013-05-24 22:20:00,73.8,67.3,29.97,NNE,23,15.0,22.0,80,0.00,,,0.00,PyWeather,2013-05-25 08:20:00,
2013-05-24 22:25:00,73.8,67.3,29.97,NNE,19,14.0,22.0,80,0.00,,,0.00,PyWeather,2013-05-25 08:25:00,
2013-05-24 22:30:00,73.8,67.3,29.97,NE,35,14.0,21.0,80,0.00,,,0.00,PyWeather,2013-05-25 08:30:00,
2013-05-24 22:35:00,73.8,67.3,29.98,NNE,12,14.0,21.0,80,0.00,,,0.00,PyWeather,2013-05-25 08:35:00,
2013-05-24 22:40:00,73.8,67.3,29.98,NNE,15,13.0,24.0,80,0.00,,,0.00,PyWeather,2013-05-25 08:40:00,
2013-05-24 22:45:00,73.8,67.3,29.98,NE,43,12.0,24.0,80,0.00,,,0.00,PyWeather,2013-05-25 08:45:00,
2013-05-24 22:50:00,73.9,67.8,29.98,North,349,12.0,-999.0,81,0.00,,,0.00,PyWeather,2013-05-25 08:50:00,
2013-05-24 22:55:00,73.8,67.7,29.97,NNE,24,13.0,-999.0,81,0.00,,,0.00,PyWeather,2013-05-25 08:55:00,
2013-05-24 23:00:00,73.9,67.8,29.97,NNE,17,14.0,-999.0,81,0.00,,,0.00,PyWeather,2013-05-25 09:00:00,
2013-05-24 23:05:00,73.8,67.7,29.96,NNE,24,15.0,-999.0,81,0.00,,,0.00,PyWeather,2013-05-25 09:05:00,
2013-05-24 23:10:00,73.7,67.9,29.96,NNE,30,15.0,26.0,82,0.00,,,0.00,PyWeather,2013-05-25 09:10:00,
2013-05-24 23:15:00,73.7,67.6,29.96,NNE,24,16.0,26.0,81,0.00,,,0.00,PyWeather,2013-05-25 09:15:00,
2013-05-24 23:20:00,73.6,67.5,29.96,NNE,21,15.0,26.0,81,0.00,,,0.00,PyWeather,2013-05-25 09:20:00,
2013-05-24 23:25:00,73.6,67.1,29.95,NNE,21,15.0,26.0,80,0.00,,,0.00,PyWeather,2013-05-25 09:25:00,
2013-05-24 23:30:00,73.7,67.2,29.95,NE,40,15.0,25.0,80,0.00,,,0.00,PyWeather,2013-05-25 09:30:00,
2013-05-24 23:35:00,73.6,67.1,29.95,NNE,25,14.0,25.0,80,0.00,,,0.00,PyWeather,2013-05-25 09:35:00,
2013-05-24 23:40:00,73.6,67.1,29.95,NNE,24,14.0,23.0,80,0.00,,,0.00,PyWeather,2013-05-25 09:40:00,
2013-05-24 23:45:00,73.5,67.0,29.95,North,10,13.0,23.0,80,0.00,,,0.00,PyWeather,2013-05-25 09:45:00,
2013-05-24 23:50:00,73.6,67.1,29.94,NNE,27,14.0,24.0,80,0.00,,,0.00,PyWeather,2013-05-25 09:50:00,
2013-05-24 23:55:00,73.5,67.0,29.94,NNE,13,14.0,24.0,80,0.00,,,0.00,PyWeather,2013-05-25 09:55:00,